Location: Philomena
(55.1756°N, 111.6233°W)
Time: 10:05:56
(UTC+00:00)

PCSat - Pass Details

Date: 13 December 2023
Orbit: 784 x 791 km, 67.0° (Epoch: 23 February)

Event Time Altitude Azimuth Distance (km) Brightness Sun altitude
Exits shadow 13:27:22 22° 326° (NW) 1,665 10.8 -17.9°
Maximum altitude 13:28:46 25° 349° (N) 1,567 10.9 -17.7°
Drops below altitude 10° 13:33:12 10° 44° (NE) 2,366 12.4 -17.1°
Sets 13:36:04 0° 58° (ENE) 3,297 13.4 -16.7°
